Location: New Frontier Mobile Home Park
(32.8448°N, 116.9675°W)
Time: 22:51:05
(UTC+00:00)

Cosmos 1674 Rocket - Pass Details

Date: 14 July 2020
Orbit: 602 x 631 km, 82.5° (Epoch: 05 August)

Event Time Altitude Azimuth Distance (km) Brightness Sun altitude
Rises 10:50:34 0° 348° (NNW) 2,869 7.5 -21.2°
Reaches altitude 10° 10:52:49 10° 344° (NNW) 1,957 6.5 -20.8°
Maximum altitude 10:57:03 56° 267° (W) 717 3.6 -20.2°
Enters shadow 10:57:34 52° 236° (SW) 750 3.5 -20.1°
